Flag for Finland Weather past 2 weeks in Lappeenranta, Finland

Now
50 °F

Fog.


Feels Like: 50 °F
Forecast: 40 / 55 °F
Wind: 2 mph from South

Location: Lappeenranta

Current Time: Sep 21, 2014 at 5:53:12 AM

Latest Report: Sep 21, 2014 at 4:50 AM


Visibility: 0 mi

Pressure: 29.86 "Hg

Humidity: 100%

Dew point: 50 °F

Location of LappeenrantaLocation

Historic Weather in Lappeenranta — Graph

°F

Lappeenranta temperature yesterday

Maximum temperature yesterday: 66 °F (at 2:20 PM)
Minimum temperature yesterday: 43 °F (at 7:20 AM)
Average temperature yesterday: 53 °F

Past Weeks' High & Low Weather Summary

 TemperatureHumidityPressure
High70 °F (Sep 9, 1:50 PM)100% (Sep 6, 5:20 AM)30.45 "Hg (Sep 6, 5:20 AM)
Low39 °F (Sep 14, 4:50 AM)39% (Sep 16, 2:50 PM)29.89 "Hg (Sep 21, 2:50 AM)
Average56 °F80%30.21 "Hg
* Reported Sep 6 4:20 AM — Sep 21 4:20 AM, Lappeenranta, Weather by CustomWeather, © 2014

Note: Actual official high and low records may vary slightly from our data, if they occured in-between our weather recording intervals... More about our weather records

Advertising

Lappeenranta weather history for previous 24 hours

 ConditionsComfort  
Time TempWeatherWind HumidityBarometerVisibility
4:20 AM
Sep 21
50 °FFog.3 mph100%29.89 "Hg0 mi
3:50 AM52 °FFog.5 mph94%29.89 "Hg0 mi
3:20 AM52 °FFog.5 mph94%29.89 "Hg0 mi
2:50 AM52 °FFog.5 mph94%29.89 "Hg0 mi
2:20 AM52 °FFog.5 mph94%29.92 "Hg0 mi
1:50 AM52 °FFog.5 mph94%29.92 "Hg1 mi
1:20 AM52 °FFog.5 mph94%29.92 "Hg1 mi
12:50 AM52 °FFog.5 mph94%29.92 "Hg3 mi
12:20 AM52 °FPassing clouds.5 mph94%29.92 "Hg4 mi
11:50 PM
Sep 20
52 °FClear.5 mph94%29.92 "Hg5 mi
10:50 PM54 °FPassing clouds.5 mph88%29.95 "HgN/A
10:20 PM54 °FPassing clouds.5 mph88%29.95 "HgN/A
9:50 PM54 °FClear.3 mph88%29.95 "Hg10 mi
9:20 PM54 °FClear.3 mph88%29.95 "Hg10 mi
8:50 PM54 °FPassing clouds.3 mph88%29.95 "HgN/A
4:20 PM64 °FPassing clouds.9 mph56%29.98 "HgN/A
3:50 PM64 °FPassing clouds.10 mph56%30.01 "HgN/A
3:20 PM64 °FPassing clouds.9 mph56%30.01 "HgN/A
2:50 PM64 °FScattered clouds.10 mph56%30.01 "HgN/A
2:20 PM66 °FPartly sunny.8 mph60%30.01 "HgN/A
1:50 PM64 °FScattered clouds.9 mph64%30.01 "HgN/A
12:50 PM63 °FPassing clouds.9 mph73%30.04 "HgN/A
12:20 PM63 °FPassing clouds.8 mph73%30.04 "HgN/A
11:50 AM61 °FPassing clouds.8 mph77%30.04 "HgN/A
11:20 AM59 °FPassing clouds.7 mph82%30.04 "HgN/A
10:50 AM57 °FPassing clouds.5 mph88%30.04 "HgN/A
10:20 AM55 °FPassing clouds.5 mph88%30.07 "HgN/A
9:50 AM52 °FPartly sunny.3 mph100%30.07 "Hg4 mi
9:20 AM52 °FFog.2 mph94%30.07 "Hg2 mi
8:50 AM48 °FFog.2 mph100%30.04 "Hg0 mi
8:20 AM46 °FFog.1 mph100%30.07 "Hg2 mi
7:50 AM45 °FFog.1 mph100%30.07 "Hg0 mi
7:20 AM43 °FFog.1 mph100%30.07 "Hg0 mi
6:50 AM45 °FFog.No wind100%30.07 "Hg0 mi
6:20 AM45 °FFog.1 mph100%30.07 "Hg0 mi
5:50 AM45 °FFog.1 mph100%30.07 "Hg0 mi
5:20 AM45 °FQuite cool.No wind100%30.07 "Hg0 mi
Weather by CustomWeather, © 2014

See weather overviewHow to use our weather pages